| time (UTC) | temp F | wind direction | speed knots | gust knots | rain 1hr in | rain 24hr in | rain mn in | humidity % | barometer mb |
| 20260902080054 | 64 | 33 | 0.0 | 1.7 | 0.00 | 0.00 | 0.00 | 83 | 1015.9 |
| 20260902074552 | 64 | 357 | 0.9 | 1.7 | 0.00 | 0.00 | 0.00 | 82 | 1016.0 |
| 20260902073055 | 65 | 42 | 0.9 | 1.7 | 0.00 | 0.00 | 0.00 | 81 | 1016.1 |
| 20260902071551 | 65 | 28 | 0.0 | 1.7 | 0.00 | 0.00 | 0.00 | 81 | 1015.8 |
| 20260902070051 | 65 | 62 | 0.0 | 0.9 | 0.00 | 0.00 | 0.00 | 80 | 1015.6 |
| 20260902064547 | 65 | 78 | 0.0 | 0.9 | 0.00 | 0.00 | 0.00 | 79 | 1015.7 |
| 20260902063049 | 66 | 69 | 0.0 | 1.7 | 0.00 | 0.00 | 0.00 | 78 | 1015.6 |
| 20260902061557 | 66 | 135 | 0.0 | 1.7 | 0.00 | 0.00 | 0.00 | 77 | 1015.4 |
| 20260902060041 | 67 | 135 | 0.0 | 1.7 | 0.00 | 0.00 | 0.00 | 76 | 1015.2 |
| 20260902054543 | 67 | 135 | 0.0 | 1.7 | 0.00 | 0.00 | 0.00 | 75 | 1015.2 |
| 20260902053040 | 67 | 113 | 0.0 | 0.9 | 0.00 | 0.00 | 0.00 | 74 | 1015.2 |
| 20260902051539 | 68 | 113 | 0.0 | 0.0 | 0.00 | 0.00 | 0.00 | 73 | 1015.3 |
| 20260902050040 | 68 | 113 | 0.0 | 0.0 | 0.00 | 0.00 | 0.00 | 73 | 1015.2 |
| 20260902044538 | 69 | 113 | 0.0 | 0.9 | 0.00 | 0.00 | 0.00 | 72 | 1015.3 |
| 20260902043042 | 69 | 119 | 0.0 | 0.9 | 0.00 | 0.00 | 0.00 | 71 | 1015.1 |
| 20260902041549 | 70 | 119 | 0.0 | 1.7 | 0.00 | 0.00 | 0.00 | 71 | 1015.0 |
| 20260902040036 | 71 | 201 | 0.0 | 1.7 | 0.00 | 0.00 | 0.00 | 71 | 1014.5 |
| 20260902034536 | 71 | 167 | 0.0 | 3.5 | 0.00 | 0.00 | 0.00 | 70 | 1014.3 |
| 20260902033036 | 72 | 169 | 0.0 | 3.5 | 0.00 | 0.00 | 0.00 | 69 | 1014.3 |
| 20260902031536 | 73 | 178 | 0.0 | 1.7 | 0.00 | 0.00 | 0.00 | 68 | 1013.9 |
| 20260902030034 | 73 | 166 | 0.0 | 4.3 | 0.00 | 0.00 | 0.00 | 67 | 1013.9 |
| 20260902024536 | 75 | 163 | 1.7 | 6.1 | 0.00 | 0.00 | 0.00 | 64 | 1013.6 |
| 20260902023035 | 76 | 251 | 0.0 | 5.2 | 0.00 | 0.00 | 0.00 | 62 | 1013.5 |
| 20260902021533 | 77 | 217 | 1.7 | 4.3 | 0.00 | 0.00 | 0.00 | 59 | 1013.4 |
| 20260902020046 | 78 | 202 | 0.9 | 5.2 | 0.00 | 0.00 | 0.00 | 57 | 1013.3 |
| 20260902014531 | 79 | 161 | 0.9 | 6.1 | 0.00 | 0.00 | 0.00 | 54 | 1013.4 |
| 20260902013034 | 80 | 168 | 1.7 | 6.1 | 0.00 | 0.00 | 0.00 | 51 | 1013.2 |
| 20260902011529 | 82 | 271 | 3.5 | 7.0 | 0.00 | 0.00 | 0.00 | 49 | 1013.2 |
| 20260902010034 | 83 | 228 | 1.7 | 6.1 | 0.00 | 0.00 | 0.00 | 44 | 1013.3 |
| 20260902004528 | 84 | 172 | 0.9 | 7.0 | 0.00 | 0.00 | 0.00 | 41 | 1013.3 |
| 20260902003025 | 85 | 249 | 2.6 | 7.8 | 0.00 | 0.00 | 0.00 | 40 | 1013.3 |
| 20260902001524 | 86 | 201 | 1.7 | 7.0 | 0.00 | 0.00 | 0.00 | 39 | 1013.2 |
| 20260902000029 | 86 | 177 | 2.6 | 8.7 | 0.00 | 0.00 | 0.00 | 39 | 1013.2 |
| 20260901234522 | 86 | 252 | 4.3 | 7.8 | 0.00 | 0.00 | 0.00 | 37 | 1013.3 |
| 20260901233021 | 87 | 216 | 2.6 | 7.0 | 0.00 | 0.00 | 0.00 | 39 | 1013.4 |
| 20260901231522 | 87 | 290 | 3.5 | 9.6 | 0.00 | 0.00 | 0.00 | 40 | 1013.4 |
| 20260901230035 | 88 | 230 | 1.7 | 9.6 | 0.00 | 0.00 | 0.00 | 39 | 1013.4 |
| 20260901224523 | 89 | 200 | 3.5 | 10.4 | 0.00 | 0.00 | 0.00 | 39 | 1013.4 |
| 20260901223020 | 89 | 227 | 3.5 | 12.2 | 0.00 | 0.00 | 0.00 | 38 | 1013.4 |
| 20260901221525 | 90 | 225 | 3.5 | 9.6 | 0.00 | 0.00 | 0.00 | 36 | 1013.3 |
| 20260901220117 | 90 | 221 | 3.5 | 9.6 | 0.00 | 0.00 | 0.00 | 35 | 1013.2 |
| 20260901214515 | 91 | 274 | 2.6 | 7.0 | 0.00 | 0.00 | 0.00 | 34 | 1013.4 |
| 20260901213013 | 92 | 263 | 4.3 | 7.8 | 0.00 | 0.00 | 0.00 | 33 | 1013.6 |
| 20260901211512 | 92 | 203 | 4.3 | 8.7 | 0.00 | 0.00 | 0.00 | 36 | 1013.6 |
| 20260901210018 | 92 | 215 | 2.6 | 7.8 | 0.00 | 0.00 | 0.00 | 36 | 1013.6 |
| 20260901204510 | 92 | 228 | 1.7 | 7.8 | 0.00 | 0.00 | 0.00 | 34 | 1013.7 |
| 20260901203008 | 92 | 226 | 2.6 | 8.7 | 0.00 | 0.00 | 0.00 | 31 | 1013.8 |
| 20260901201502 | 93 | 139 | 2.6 | 7.0 | 0.00 | 0.00 | 0.00 | 32 | 1013.8 |
| 20260901200100 | 90 | 288 | 1.7 | 6.1 | 0.00 | 0.00 | 0.00 | 32 | 1014.0 |
| 20260901194603 | 90 | 218 | 1.7 | 7.0 | 0.00 | 0.00 | 0.00 | 33 | 1014.2 |
| 20260901193053 | 89 | 178 | 3.5 | 7.0 | 0.00 | 0.00 | 0.00 | 32 | 1014.2 |
| 20260901191559 | 88 | 124 | 0.9 | 6.1 | 0.00 | 0.00 | 0.00 | 34 | 1014.5 |
| 20260901190105 | 88 | 178 | 0.9 | 5.2 | 0.00 | 0.00 | 0.00 | 35 | 1014.5 |
| 20260901184546 | 86 | 127 | 3.5 | 7.8 | 0.00 | 0.00 | 0.00 | 39 | 1014.7 |
| 20260901183042 | 86 | 209 | 2.6 | 7.0 | 0.00 | 0.00 | 0.00 | 42 | 1014.8 |
| 20260901181539 | 85 | 201 | 2.6 | 5.2 | 0.00 | 0.00 | 0.00 | 44 | 1014.9 |
| 20260901180037 | 82 | 163 | 1.7 | 6.1 | 0.00 | 0.00 | 0.00 | 52 | 1015.0 |
| 20260901174536 | 82 | 280 | 1.7 | 4.3 | 0.00 | 0.00 | 0.00 | 55 | 1015.2 |
| 20260901173029 | 78 | 42 | 1.7 | 4.3 | 0.00 | 0.00 | 0.00 | 60 | 1015.2 |
| 20260901171527 | 78 | 122 | 3.5 | 6.1 | 0.00 | 0.00 | 0.00 | 61 | 1015.2 |
| 20260901170020 | 77 | 252 | 1.7 | 4.3 | 0.00 | 0.00 | 0.00 | 66 | 1015.3 |
| 20260901164517 | 76 | 301 | 0.9 | 5.2 | 0.00 | 0.00 | 0.00 | 67 | 1015.2 |
| 20260901163022 | 75 | 203 | 0.9 | 3.5 | 0.00 | 0.00 | 0.00 | 70 | 1015.1 |
| 20260901161511 | 73 | 185 | 1.7 | 5.2 | 0.00 | 0.00 | 0.00 | 74 | 1014.9 |
| 20260901160005 | 73 | 230 | 0.9 | 2.6 | 0.00 | 0.00 | 0.00 | 75 | 1014.8 |
| 20260901154601 | 71 | 144 | 0.9 | 3.5 | 0.00 | 0.00 | 0.00 | 79 | 1014.7 |
| 20260901153055 | 69 | 67 | 0.0 | 0.0 | 0.00 | 0.00 | 0.00 | 83 | 1014.7 |
| 20260901151551 | 67 | 95 | 0.0 | 0.0 | 0.00 | 0.00 | 0.00 | 86 | 1014.6 |
| 20260901150048 | 66 | 144 | 0.0 | 0.0 | 0.00 | 0.00 | 0.00 | 88 | 1014.7 |
| 20260901144543 | 65 | 32 | 0.0 | 0.0 | 0.00 | 0.00 | 0.00 | 89 | 1014.7 |
| 20260901143039 | 64 | 88 | 0.0 | 0.0 | 0.00 | 0.00 | 0.00 | 89 | 1014.5 |
| 20260901141534 | 63 | 44 | 0.0 | 0.0 | 0.00 | 0.00 | 0.00 | 89 | 1014.4 |
| 20260901140031 | 62 | 44 | 0.0 | 0.0 | 0.00 | 0.00 | 0.00 | 88 | 1014.4 |
| 20260901134527 | 62 | 44 | 0.0 | 0.0 | 0.00 | 0.00 | 0.00 | 88 | 1014.4 |
| 20260901133032 | 62 | 44 | 0.0 | 0.0 | 0.00 | 0.00 | 0.00 | 88 | 1014.1 |
| 20260901131524 | 62 | 65 | 0.0 | 1.7 | 0.00 | 0.00 | 0.00 | 88 | 1014.0 |
| 20260901130023 | 62 | 9 | 0.0 | 3.5 | 0.00 | 0.00 | 0.00 | 88 | 1013.9 |
| 20260901124523 | 62 | 7 | 0.0 | 1.7 | 0.00 | 0.00 | 0.00 | 88 | 1013.9 |
| 20260901123024 | 63 | 11 | 0.0 | 1.7 | 0.00 | 0.00 | 0.00 | 87 | 1014.0 |
| 20260901121523 | 63 | 2 | 0.0 | 0.0 | 0.00 | 0.00 | 0.00 | 87 | 1013.9 |
| 20260901120021 | 63 | 26 | 0.0 | 0.0 | 0.00 | 0.00 | 0.00 | 87 | 1013.9 |
| 20260901114518 | 63 | 34 | 0.0 | 0.0 | 0.00 | 0.00 | 0.00 | 87 | 1013.9 |
| 20260901113017 | 63 | 34 | 0.0 | 0.0 | 0.00 | 0.00 | 0.00 | 86 | 1013.8 |
| 20260901111516 | 64 | 34 | 0.0 | 0.0 | 0.00 | 0.00 | 0.00 | 86 | 1013.7 |
| 20260901110014 | 64 | 34 | 0.0 | 0.0 | 0.00 | 0.00 | 0.00 | 86 | 1013.7 |
| 20260901104530 | 64 | 34 | 0.0 | 0.0 | 0.00 | 0.00 | 0.00 | 85 | 1013.7 |
| 20260901103012 | 64 | 34 | 0.0 | 0.0 | 0.00 | 0.00 | 0.00 | 85 | 1013.7 |
| 20260901101518 | 64 | 34 | 0.0 | 0.0 | 0.00 | 0.00 | 0.00 | 85 | 1013.9 |
| 20260901100010 | 65 | 34 | 0.0 | 0.0 | 0.00 | 0.00 | 0.00 | 84 | 1013.9 |
| 20260901094509 | 65 | 34 | 0.0 | 0.0 | 0.00 | 0.00 | 0.00 | 84 | 1014.0 |
| 20260901093008 | 65 | 34 | 0.0 | 0.0 | 0.00 | 0.00 | 0.00 | 84 | 1013.9 |
| 20260901091506 | 65 | 59 | 0.0 | 0.0 | 0.00 | 0.00 | 0.00 | 83 | 1013.6 |
| 20260901090008 | 66 | 59 | 0.0 | 0.0 | 0.00 | 0.00 | 0.00 | 82 | 1013.8 |
| 20260901084505 | 66 | 59 | 0.0 | 0.0 | 0.00 | 0.00 | 0.00 | 81 | 1013.7 |
| 20260901083100 | 66 | 30 | 0.0 | 0.0 | 0.00 | 0.00 | 0.00 | 81 | 1013.7 |
| 20260901081555 | 66 | 81 | 0.0 | 0.0 | 0.00 | 0.00 | 0.00 | 80 | 1013.9 |